Alamosa, CO

2:47 PM MST on January 17, 2017 (GMT -0700)
San Luis Valley Regional / Bergman Field

Weather History for KALS - May, 2013

Change the Weather History Date:

Thursday, May 16, 2013

  Actual Average Record
Temperature  
Mean Temperature 54 °F 51 °F  
Max Temperature 77 °F 69 °F 83 °F (1996)
Min Temperature 30 °F 34 °F 23 °F (1951)
Degree Days  
Heating Degree Days 11 14  
Month to date heating degree days 307 255  
Since 1 July heating degree days 8759 8255  
Cooling Degree Days 0 0  
Month to date cooling degree days 0 0  
Year to date cooling degree days 0 0  
Growing Degree Days 4 (Base 50)    
Moisture  
Dew Point 33 °F    
Average Humidity 58    
Maximum Humidity 100    
Minimum Humidity 16    
Precipitation  
Precipitation 0.00 in 0.01 in 0.58 in (1953)
Month to date precipitation 0.18 0.32  
Year to date precipitation 1.06 1.96  
Snow  
Snow 0.00 in 0.00 in 1.20 in (1953)
Month to date snowfall 0.0 0.8  
Since 1 July snowfall 21.1 27.5  
Snow Depth 0.00 in    
Sea Level Pressure  
Sea Level Pressure 29.95 in    
Wind  
Wind Speed 5 mph (WNW)    
Max Wind Speed 16 mph    
Max Gust Speed 22 mph    
Visibility 8 miles    
Events Fog    
T = Trace of Precipitation, MM = Missing Value Source: NWS Daily Summary

Daily Weather History Graph

Daily Weather History Graph

Search for Another Location

Airport or City:

Trip Planner

Search our weather history database for the weather conditions in past years. The results will help you decide how hot, cold, wet, or windy it might be!

Date:

Astronomy

May. 16, 2013 Rise Set
Actual Time 5:53 AM MDT 8:06 PM MDT
Civil Twilight 5:24 AM MDT 8:36 PM MDT
Nautical Twilight 4:48 AM MDT 9:12 PM MDT
Astronomical Twilight 4:09 AM MDT 9:51 PM MDT
Moon 11:26 AM MDT (5/16) 12:31 AM MDT (5/16)
Length of Visible Light 15h 12m
Length of Day
14h 13m
Waxing Crescent, 36% of the Moon is Illuminated
May 16
Waxing Crescent
May 17
First Quarter
May 24
Full
May 31
Last Quarter
Jun 8
New

Hourly Weather History & Observations

Time (MDT) Temp. Windchill Dew Point Humidity Pressure Visibility Wind Dir Wind Speed Gust Speed Precip Events Conditions
12:52 AM 42.1 °F 37.7 °F 39.9 °F 92% 29.92 in 10.0 mi ESE 6.9 mph - N/A   Clear
1:52 AM 37.9 °F 33.5 °F 37.0 °F 97% 29.91 in 10.0 mi SE 5.8 mph - N/A   Clear
2:52 AM 39.0 °F - 37.9 °F 96% 29.90 in 10.0 mi Calm Calm - N/A   Clear
3:52 AM 37.0 °F - 36.0 °F 96% 29.93 in 10.0 mi Calm Calm - N/A   Clear
4:52 AM 35.1 °F 31.0 °F 34.0 °F 96% 29.99 in 2.0 mi Variable 4.6 mph - N/A   Clear
5:05 AM 35.6 °F - 35.6 °F 100% 30.11 in 10.0 mi Calm Calm - N/A   Clear
5:39 AM 33.8 °F - 33.8 °F 100% 30.12 in 1.2 mi Calm Calm - N/A   Clear
5:52 AM 32.0 °F - 32.0 °F 100% 30.03 in 0.2 mi Calm Calm - N/A Fog Fog
6:33 AM 33.8 °F 30.8 °F 33.8 °F 100% 30.13 in 1.2 mi West 3.5 mph - N/A   Scattered Clouds
6:40 AM 33.8 °F - 33.8 °F 100% 30.13 in 3.0 mi Calm Calm - N/A   Partly Cloudy
6:52 AM 34.0 °F - 34.0 °F 100% 30.03 in 10.0 mi Calm Calm - N/A   Partly Cloudy
7:52 AM 39.0 °F - 39.0 °F 100% 30.02 in 5.0 mi Calm Calm - N/A   Scattered Clouds
7:55 AM 39.2 °F - 39.2 °F 100% 30.15 in 1.5 mi Calm Calm - N/A   Scattered Clouds
7:57 AM 39.2 °F - 39.2 °F 100% 30.15 in 0.8 mi Calm Calm - N/A   Mist
8:14 AM 41.0 °F - 41.0 °F 100% 30.15 in 2.0 mi Calm Calm - N/A   Mostly Cloudy
8:21 AM 41.0 °F - 41.0 °F 100% 30.15 in 9.0 mi Calm Calm - N/A   Mostly Cloudy
8:30 AM 42.8 °F - 41.0 °F 93% 30.15 in 10.0 mi Calm Calm - N/A   Scattered Clouds
8:52 AM 45.0 °F 43.5 °F 42.1 °F 90% 30.01 in 10.0 mi Variable 3.5 mph - N/A   Clear
9:52 AM 55.9 °F - 42.1 °F 60% 29.95 in 10.0 mi SE 3.5 mph - N/A   Clear
10:52 AM 62.1 °F - 39.9 °F 44% 29.92 in 10.0 mi NE 4.6 mph - N/A   Clear
11:52 AM 64.9 °F - 35.1 °F 33% 29.91 in 10.0 mi East 4.6 mph - N/A   Clear
12:52 PM 70.0 °F - 28.0 °F 21% 29.86 in 10.0 mi North 10.4 mph - N/A   Clear
1:52 PM 71.1 °F - 26.1 °F 19% 29.85 in 10.0 mi Calm Calm - N/A   Scattered Clouds
2:52 PM 73.9 °F - 25.0 °F 16% 29.81 in 10.0 mi NNW 5.8 mph - N/A   Clear
3:52 PM 73.0 °F - 24.1 °F 16% 29.80 in 10.0 mi West 5.8 mph - N/A   Scattered Clouds
4:52 PM 73.0 °F - 26.1 °F 17% 29.80 in 10.0 mi North 13.8 mph 17.3 mph N/A   Scattered Clouds
5:11 PM 71.6 °F - 28.4 °F 20% 30.00 in 10.0 mi NNE 11.5 mph 19.6 mph N/A   Partly Cloudy
5:52 PM 73.0 °F - 27.0 °F 18% 29.80 in 10.0 mi NE 6.9 mph - N/A   Clear
6:52 PM 72.0 °F - 23.0 °F 16% 29.79 in 10.0 mi WSW 9.2 mph - N/A   Clear
7:52 PM 66.0 °F - 25.0 °F 21% 29.81 in 10.0 mi WSW 11.5 mph - N/A   Clear
8:52 PM 57.9 °F - 28.0 °F 32% 29.84 in 10.0 mi West 8.1 mph - N/A   Clear
9:52 PM 52.0 °F - 30.0 °F 43% 29.84 in 10.0 mi West 5.8 mph - N/A   Clear
10:52 PM 48.9 °F - 30.0 °F 48% 29.84 in 10.0 mi WSW 6.9 mph - N/A   Clear
11:52 PM 46.0 °F 41.0 °F 26.1 °F 46% 29.84 in 10.0 mi SSW 10.4 mph - N/A   Clear